Simultaneous Nadir Overpasses (SNOs) Predictions

Prediction of SNOs between NOAA-15 and METOP-C Satellite Orbit:

Table of predicted SNOs for the next 14.0 days since TLE Epoch: 2/3/2024
Index Date (NOAA-15) Time (NOAA-15) Lat,Lon (NOAA-15) SZA (NOAA-15 ) Date (METOP-C) Time (METOP-C) Lat,Lon (METOP-C) SZA (METOP-C ) Distance(km) Time Diff (sec)
1 02/05/2024 23:17:18 81.06,-130.80 98.43 02/05/2024 23:16:10 81.07,-130.95 98.40 3.02 68
2 02/06/2024 00:07:53 -81.08, 36.18 81.60 02/06/2024 00:06:51 -81.07, 36.30 81.62 2.34 62
3 02/06/2024 00:58:19 81.07,-156.30 98.40 02/06/2024 00:57:32 81.07,-156.47 98.36 2.91 47
4 02/06/2024 01:48:53 -81.07, 11.04 81.62 02/06/2024 01:48:12 -81.08, 11.16 81.62 2.13 41
5 02/06/2024 02:39:19 81.06, 178.57 98.38 02/06/2024 02:38:53 81.07, 178.39 98.36 3.20 26
6 02/06/2024 03:29:54 -81.08, -14.46 81.65 02/06/2024 03:29:34 -81.07, -14.35 81.66 2.26 20
7 02/06/2024 04:20:20 81.08, 153.06 98.35 02/06/2024 04:20:14 81.08, 153.25 98.37 3.15 6
8 02/06/2024 05:10:54 -81.08, -39.59 81.67 02/06/2024 05:10:55 -81.08, -39.50 81.66 1.62 1
9 02/06/2024 06:01:21 81.09, 127.56 98.32 02/06/2024 06:01:36 81.07, 127.73 98.32 3.26 15
10 02/06/2024 06:51:54 -81.07, -64.72 81.68 02/06/2024 06:52:16 -81.09, -64.64 81.66 2.10 22
11 02/06/2024 07:42:21 81.08, 102.43 98.30 02/06/2024 07:42:57 81.08, 102.58 98.32 2.66 36
12 02/06/2024 08:32:55 -81.08, -90.23 81.72 02/06/2024 08:33:38 -81.08, -90.15 81.70 1.32 43
13 02/06/2024 09:23:21 81.08, 77.30 98.28 02/06/2024 09:24:18 81.09, 77.44 98.33 2.78 57



Historial Predications of SNOs between NOAA-15 and METOP-C
